OpenBCM V1.08-5-g2f4a (Linux)

Packet Radio Mailbox

IZ3LSV

[San Dona' di P. JN]

 Login: GUEST





  
LU9DCE > KEPS     13.02.18 18:13l 259 Lines 12993 Bytes #999 (0) @ WW
BID : 31717_LU9DCE
Read: GUEST
Subj: SAT TLE OF 13
Path: IZ3LSV<IR2UBX<EA2RCF<LU9DCE
Sent: 180213/1601Z @:LU9DCE.TOR.BA.ARG.SOAM #:31717 [TORTUGUITAS] FBB7.07
From: LU9DCE@LU9DCE.TOR.BA.ARG.SOAM
To  : KEPS@WW


            __    _  _  ___  ____   ___  ____    ____  ____  ____
           (  )  / )( \/ _ \(    \ / __)(  __)  (  _ \(  _ \/ ___)
           / (_/\) \/ (\__  )) D (( (__  ) _)    ) _ ( ) _ (\___ \
           \____/\____/(___/(____/ \___)(____)  (____/(____/(____/
               ESTACION DE PACKET RADIO - BUENOS AIRES (GF05OM)
                   BOLETINES INFORMATIVOS PROGRAMADOS (BIP)
                    LU9DCE@GMX.COM - RF 147070 @ 1200 BAUD
                           telnet lu9dce.dynu.com
             BBS port 6300 / NODE port 3694 / DXCLUSTER port 9000

+------------------------------------------------------------------------------+
OSCAR 7
1 07530U 74089B   18043.92245208 -.00000043  00000-0  95366-5 0  9993
2 07530 101.6699  13.1921 0011843 214.9757 208.9583 12.53631157979024
OSCAR 11 (UoSAT 2)
1 14781U 84021B   18044.12076241  .00000049  00000-0  12294-4 0  9991
2 14781  97.6663  85.5167 0009749 124.9507 235.2624 14.82979763826050
OSCAR 19 (LUSAT)
1 20442U 90005G   18043.77752139 -.00000010 +00000-0 +12436-4 0  9995
2 20442 098.5996 343.1106 0012206 152.5926 207.5904 14.32886512466013
KITSAT B
1 22825U 93061C   18043.88688362 -.00000013 +00000-0 +12972-4 0  9993
2 22825 098.8473 017.8518 0008340 356.7786 003.3340 14.30021530271537
POSAT 1
1 22826U 93061D   18043.86249871 -.00000013 +00000-0 +12650-4 0  9993
2 22826 098.8414 017.8804 0008672 346.1729 013.9214 14.30352379271736
RADIO ROSTO
1 23439U 94085A   18043.81908194 -.00000051 +00000-0 -22954-3 0  9996
2 23439 064.8149 189.9725 0161362 204.1628 267.9276 11.27566629952547
JAS 2
1 24278U 96046B   18044.15119812 -.00000012  00000-0  21357-4 0  9999
2 24278  98.5290 259.9129 0351325  72.7765 291.1508 13.53081211 61466
TECHSAT 1B
1 25397U 98043D   18043.84302579 -.00000020 +00000-0 +10370-4 0  9992
2 25397 098.6380 346.4219 0002030 051.7586 308.3776 14.23639557017814
ISS (ZARYA)
1 25544U 98067A   18043.93811343 +.00001087 +00000-0 +23695-4 0  9993
2 25544 051.6432 278.1211 0003426 099.1347 080.0279 15.54084625099197
PCSAT
1 26931U 01043C   18043.83373743 -.00000033 +00000-0 +19207-4 0  9993
2 26931 067.0505 190.2774 0005706 281.3010 078.7450 14.30493660854698
SAUDISAT 1C
1 27607U 02058C   18044.51363342  .00000005  00000-0  21387-4 0  9991
2 27607  64.5552 108.0504 0050394 358.2200   1.8714 14.75419087814718
CUTE-1
1 27844U 03031E   18043.56536690 +.00000057 +00000-0 +45342-4 0  9992
2 27844 098.6889 054.0478 0010036 018.5058 341.6483 14.22093882758446
CUBESAT XI 4
1 27848U 03031J   18044.47540962  .00000041  00000-0  38684-4 0  9998
2 27848  98.6978  55.2993 0010073  25.7630 334.4047 14.21700693758485
MOZHAYETS 4
1 27939U 03042A   18044.55826569  .00000118  00000-0  29595-4 0  9996
2 27939  97.9694 187.0345 0013152 174.9349 253.3981 14.66656660768696
CUBESAT XI 5
1 28895U 05043F   18043.91326966 +.00000135 +00000-0 +34609-4 0  9997
2 28895 097.8895 200.5350 0018177 101.9616 258.3626 14.63507828655465
CUTE-1.7+APD II
1 32785U 08021C   18043.78529162 +.00000211 +00000-0 +28535-4 0  9993
2 32785 097.5530 061.8690 0014656 091.1887 269.1009 14.88059926530605
DELFI C3
1 32789U 08021G   18044.18886160  .00000806  00000-0  59851-4 0  9991
2 32789  97.5288 102.0594 0012461   8.0550 352.0875 15.05738028533126
SEEDS
1 32791U 08021J   18043.60580158 +.00000409 +00000-0 +47303-4 0  9996
2 32791 097.5451 066.7580 0014879 075.4516 284.8352 14.90464817530873
YUBELEINY
1 32953U 08025A   18044.17383045  .00000037  00000-0  19463-3 0  9991
2 32953  82.5004  89.8109 0020333 119.4770 240.8341 12.43081523441367
PRISM (HITOMI)
1 33493U 09002B   18044.50854368  .00000166  00000-0  20456-4 0  9993
2 33493  98.1423 301.7755 0015855  10.2974 349.8581 14.96066174491855
KKS-1 (KISEKI)
1 33499U 09002H   18044.53800089  .00000109  00000-0  24187-4 0  9995
2 33499  98.3484 222.3225 0008539 333.2221  26.8545 14.75293590486941
SWISSCUBE
1 35932U 09051B   18043.92525997 +.00000102 +00000-0 +33982-4 0  9993
2 35932 098.5251 192.2353 0006949 224.9949 135.0686 14.56119658445318
BEESAT
1 35933U 09051C   18043.89281024 +.00000087 +00000-0 +30701-4 0  9998
2 35933 098.5291 193.6690 0004928 237.9683 122.1036 14.56227976445371
ITUPSAT 1
1 35935U 09051E   18043.94628958 +.00000085 +00000-0 +30678-4 0  9998
2 35935 098.5405 193.9782 0007299 234.2356 125.8163 14.55409873445228
XIWANG-1 (HOPE-1)
1 36122U 09072B   18043.89633768 -.00000043 +00000-0 -23323-5 0  9995
2 36122 100.0837 064.3073 0007924 043.6803 316.4937 13.16343352392192
TISAT 1
1 36799U 10035E   18043.94173075 +.00000230 +00000-0 +29566-4 0  9992
2 36799 098.0868 177.0229 0011127 254.1450 105.8541 14.90690701411441
JUGNU
1 37839U 11058B   18044.38748288  .00000317  00000-0  27395-4 0  9991
2 37839  19.9622  67.9408 0018808 322.8514 165.6600 14.12609111327849
SRMSAT
1 37841U 11058D   18044.51127889  .00000294  00000-0  16361-4 0  9992
2 37841  19.9721 113.8417 0011657 211.6767 272.7436 14.10598052327399
M-CUBED/EXP-1 PRIME
1 37855U 11061F   18043.95879785 +.00001079 +00000-0 +63209-4 0  9992
2 37855 101.7245 042.9173 0177772 089.7756 272.3824 15.04040388342504
HORYU 2
1 38340U 12025D   18043.70545535  .00000187  00000-0  35580-4 0  9999
2 38340  98.3741  61.1019 0010475 244.3070 115.7056 14.75497230308757
STRAND 1
1 39090U 13009E   18043.78928598  .00000032  00000-0  26488-4 0  9993
2 39090  98.5327 251.7003 0008371 311.6162  48.4305 14.35010552259987
BEESAT 3
1 39134U 13015E   18044.09624860  .00001223  00000-0  67761-4 0  9991
2 39134  64.8640 168.2122 0025404 227.4052 132.4932 15.18798278266058
SOMP
1 39135U 13015F   18044.18115309  .00001225  00000-0  72293-4 0  9993
2 39135  64.8694 179.7073 0030351 248.7504 111.0379 15.16382057265841
BEESAT 2
1 39136U 13015G   18043.77794005 +.00001120 +00000-0 +67972-4 0  9996
2 39136 064.8691 183.4593 0030154 249.9650 109.8228 15.15859168265348
CUBEBUG 1
1 39153U 13018D   18044.21027546  .00000171  00000-0  29339-4 0  9997
2 39153  97.9793 140.2024 0016652 352.6334   7.4630 14.80338162259255
ZACUBE
1 39417U 13066B   18043.92258452 +.00000191 +00000-0 +30581-4 0  9995
2 39417 097.6019 079.1058 0058724 200.8072 159.0751 14.80873484228404
TRITON 1
1 39427U 13066M   18044.08002875  .00000140  00000-0  30777-4 0  9991
2 39427  97.6376  48.2654 0112855 297.3677  61.6080 14.67609665226378
GOMX 1
1 39430U 13066Q   18044.51899884  .00000276  00000-0  59178-4 0  9993
2 39430  97.6847  30.3939 0151783   1.5169 358.6462 14.59021925225120
HUMSAT D
1 39433U 13066T   18044.15364949  .00000268  00000-0  31859-4 0  9992
2 39433  97.6216 104.7719 0032246 133.9361 226.4528 14.91744221229936
50 SAT
1 39436U 13066W   18044.29202071  .00059833  00000-0  77396-3 0  9994
2 39436  97.7114 170.4884 0006293 280.6357  79.4189 15.58715187233902
CUBEBUG 2
1 39440U 13066AA  18044.11881005  .00000171  00000-0  31150-4 0  9990
2 39440  97.6095  66.6780 0079375 237.8539 121.4953 14.75610662227621
FUNCUBE 1
1 39444U 13066AE  18043.64550184 +.00000219 +00000-0 +33574-4 0  9997
2 39444 097.6032 080.2095 0057986 197.5374 162.3838 14.81637900226626
UWE-3
1 39446U 13066AG  18043.94790278 +.00000176 +00000-0 +30236-4 0  9996
2 39446 097.6043 072.4657 0069407 219.9612 139.6480 14.78143229226174
SPROUT
1 39770U 14029E   18044.55721520  .00000379  00000-0  48839-4 0  9991
2 39770  97.8728 146.6942 0007546 250.9447 109.0946 14.86662067201990
UNISAT 6
1 40012U 14033C   18043.90147281 +.00000134 +00000-0 +27666-4 0  9995
2 40012 097.8268 284.6423 0057276 238.9997 120.5579 14.73762566196396
DUCHIFAT 1
1 40021U 14033M   18044.17815430  .00000425  00000-0  49734-4 0  9996
2 40021  97.9179 322.6748 0011876 223.4325 136.5958 14.90194432198481
QB50P1
1 40025U 14033R   18043.73253816 +.00000208 +00000-0 +28321-4 0  9993
2 40025 097.9091 319.3687 0011328 230.8651 129.1560 14.88633444197764
CHUBUSAT 1
1 40300U 14070C   18044.18338921  .00000587  00000-0  29153-4 0  9995
2 40300  97.3754 124.4850 0019848 342.9314 101.3575 15.21379596181420
NUDT-PHONESAT
1 40900U 15049B   18044.10148940  .00001763  00000-0  82997-4 0  9992
2 40900  97.4429  53.8228 0015301 102.3395 257.9554 15.20769103133054
ZDPS 2A
1 40901U 15049C   18044.52963171  .00000850  00000-0  46485-4 0  9998
2 40901  97.4594  52.8245 0015429 105.8509 254.4426 15.16848066132917
ZDPS 2B
1 40902U 15049D   18044.22305306  .00000763  00000-0  42327-4 0  9990
2 40902  97.4483  50.7538 0015496 104.2458 256.0497 15.16654971132856
XW-2A
1 40903U 15049E   18044.54513438  .00001801  00000-0  47132-4 0  9996
2 40903  97.3992  78.1052 0015994 113.7389 246.5537 15.39992165134774
KAITUO 1A
1 40904U 15049F   18044.56850907  .00000320  00000-0  20698-4 0  9997
2 40904  97.4580  50.4808 0016423 103.4279  14.3375 15.14877394132782
OBJECT G
1 40905U 15049G   18044.55044247  .00000417  00000-0  26576-4 0  9997
2 40905  97.4567  48.7469 0017531  97.8997 262.4225 15.13854421132713
XW-2C
1 40906U 15049H   18044.55206119  .00000623  00000-0  36799-4 0  9993
2 40906  97.4589  50.3325 0016772  97.7656 262.5481 15.15010976132777
XW-2D
1 40907U 15049J   18044.51630030  .00000691  00000-0  40282-4 0  9990
2 40907  97.4561  50.0108 0016143  96.0091 264.2981 15.15148714132777
LILACSAT 2
1 40908U 15049K   18043.91393502 +.00000300 +00000-0 +20366-4 0  9992
2 40908 097.4669 048.9349 0017735 098.4618 261.8625 15.13403383132579
XW-2F
1 40910U 15049M   18044.22868317  .00000905  00000-0  50071-4 0  9998
2 40910  97.4570  50.8210 0016889  93.6716 266.6449 15.16251870132670
XW-2B
1 40911U 15049N   18043.93502813 +.00000606 +00000-0 +35820-4 0  9995
2 40911 097.4599 049.9294 0016036 098.2482 262.0570 15.15096464132588
